This is the latest recevied weather packets stored in our database for station/object K0FJ-1. If no packets are shown the sender has not sent any weather packets the latest 10 day(s).
| Time | Temp. | Humidity | Pressure | Rain* | Wind** | Luminosity | Snow |
|---|---|---|---|---|---|---|---|
| 1788062703 | 28.89° C | 48% | 1011.8 hPa | 0 mm | - | - | - |
| 1788062403 | 29.44° C | 48% | 1012 hPa | 0 mm | - | - | - |
| 1788062103 | 29.44° C | 47% | 1011.8 hPa | 0 mm | - | - | - |
| 1788061803 | 29.44° C | 47% | 1011.8 hPa | 0 mm | - | - | - |
| 1788061503 | 29.44° C | 47% | 1011.8 hPa | 0 mm | - | - | - |
| 1788061203 | 30° C | 46% | 1011.9 hPa | 0 mm | - | - | - |
| 1788060903 | 30° C | 46% | 1011.8 hPa | 0 mm | - | - | - |
| 1788060603 | 30° C | 46% | 1011.9 hPa | 0 mm | - | - | - |
| 1788060303 | 30° C | 45% | 1011.8 hPa | 0 mm | - | - | - |
| 1788060003 | 30° C | 45% | 1011.8 hPa | 0 mm | - | - | - |
| 1788059703 | 30.56° C | 45% | 1011.8 hPa | 0 mm | - | - | - |
| 1788059403 | 30.56° C | 45% | 1011.8 hPa | 0 mm | - | - | - |
| 1788059103 | 30.56° C | 45% | 1011.9 hPa | 0 mm | - | - | - |
| 1788058803 | 30° C | 45% | 1011.9 hPa | 0 mm | - | - | - |
| 1788058503 | 30° C | 46% | 1011.8 hPa | 0 mm | - | - | - |
| 1788058203 | 29.44° C | 48% | 1011.7 hPa | 0 mm | - | - | - |
| 1788057903 | 28.33° C | 50% | 1011.7 hPa | 0 mm | - | - | - |
| 1788057603 | 28.33° C | 53% | 1011.7 hPa | 0 mm | - | - | - |
| 1788057303 | 28.33° C | 54% | 1011.7 hPa | 0 mm | - | - | - |
| 1788057003 | 28.33° C | 56% | 1011.7 hPa | 0 mm | - | - | - |
| 1788056703 | 28.33° C | 56% | 1011.6 hPa | 0 mm | - | - | - |
| 1788056404 | 28.33° C | 55% | 1011.4 hPa | 0 mm | - | - | - |
| 1788056103 | 28.89° C | 55% | 1011.4 hPa | 0 mm | - | - | - |
| 1788055803 | 28.89° C | 55% | 1011.3 hPa | 0 mm | - | - | - |
| 1788055503 | 29.44° C | 54% | 1011.3 hPa | 0 mm | - | - | - |
* Rain latest hour (hover to see other rain measurements)
** Current wind speed in m/s (hover to see current wind gust speed)